Regional Weather Roundup
Issued by NWS

Home | Current Version | Previous Version | Graphics & Text | Print | Product List | Glossary On
Versions: 1 2 3 4 5 6 7 8 9 10 11 12 13 14 15 16 17 18 19 20 21 22 23 24 25 26 27 28 29 30 31 32 33 34 35 36 37 38 39 40 41 42 43 44 45 46 47 48 49 50
000
ASUS43 KOAX 211102
RWRNE

WEATHER ROUNDUP FOR NEBRASKA
NATIONAL WEATHER SERVICE OMAHA NE
500 AM CST FRI NOV 21 2014

NOTES: SATELLITE DATA IS BEING USED TO AUGMENT CLOUD COVER ABOVE
       12000 FEET.
       "FAIR" INDICATES FEW OR NO CLOUDS BELOW 12,000 FEET WITH NO
       SIGNIFICANT WEATHER AND/OR OBSTRUCTIONS TO VISIBILITY.

  * THESE STATIONS DO NOT REPORT WEATHER SUCH AS RAIN...SNOW OR FOG.

NEZ001>004-019>022-054>056-211200-
NEBRASKA PANHANDLE

CITY           SKY/WX    TMP DP  RH WIND       PRES   REMARKS
SCOTTSBLUFF    MOCLDY    25  18  74 CALM      29.91F
ALLIANCE       MOCLDY    24  18  77 S5        29.90F WCI  18
CHADRON        MOCLDY    23  18  81 W5        29.88F WCI  17
KIMBALL        MOCLDY    29  19  66 SW6       29.91S WCI  23
SIDNEY         MOCLDY    31  20  63 SW9       29.94F WCI  23
$$

NEZ057>060-069>072-079>082-211200-
SOUTHWEST NEBRASKA

CITY           SKY/WX    TMP DP  RH WIND       PRES   REMARKS
NORTH PLATTE   CLOUDY    20  16  84 CALM      30.01F
IMPERIAL       CLOUDY    30  22  72 SE6       29.98F WCI  24
MCCOOK         MOCLDY    21  17  84 E5        30.04F WCI  15
$$

NEZ005>010-023>029-035>040-094-211200-
NORTH CENTRAL NEBRASKA

CITY           SKY/WX    TMP DP  RH WIND       PRES   REMARKS
VALENTINE      CLEAR     26  20  77 SW8       29.91F WCI  18
AINSWORTH      CLEAR     25  19  80 S15       29.94S WCI  12
BROKEN BOW     PTCLDY    24  18  77 S12       30.03F WCI  13
ORD            CLEAR     16  13  88 SE5       30.07F WCI   9
$$

NEZ041-046>049-061>064-073>077-083>087-211200-
SOUTH CENTRAL NEBRASKA

CITY           SKY/WX    TMP DP  RH WIND       PRES   REMARKS
GRAND ISLAND   PTCLDY    20  15  81 S12       30.12F WCI   8
AURORA         PTCLDY    17  15  90 S5        30.13S WCI  10
HASTINGS       FAIR      19  15  84 S6        30.11F WCI  11
HEBRON         PTCLDY    17  13  86 SE3       30.16F
HOLDREGE       PTCLDY    22  18  83 S5        30.08S WCI  16
KEARNEY *      CLEAR     21  16  79 S6        30.11S WCI  14
YORK           PTCLDY    18  16  93 S8        30.15F WCI   7
$$

NEZ011>018-030>034-042>045-211200-
NORTHEAST NEBRASKA

CITY           SKY/WX    TMP DP  RH WIND       PRES   REMARKS
NORFOLK        PTCLDY    19  15  84 S12       30.12F WCI   7
ALBION         CLEAR     19  15  84 SE6       30.11S WCI  11
BLAIR          PTCLDY    20  15  79 SE8       30.18F WCI  10
COLUMBUS *     PTCLDY    19  12  73 SE7       30.16F WCI  10
FREMONT        CLEAR     20  16  82 SE8       30.19S WCI  10
TEKAMAH        CLEAR     15  10  80 SE7       30.22F WCI   5
$$

NEZ050>053-065>068-078-088>093-211200-
SOUTHEAST NEBRASKA

CITY           SKY/WX    TMP DP  RH WIND       PRES   REMARKS
LINCOLN        PTCLDY    20  15  81 S8        30.20F WCI  10
OMAHA EPPLEY   PTCLDY    19  14  81 SE9       30.23F WCI   8
BEATRICE       PTCLDY    20  16  83 SE3       30.19S
FALLS CITY     PTCLDY    18  14  84 E3        30.23F
NEBRASKA CITY  PTCLDY    18  13  82 S6        30.22S WCI   9
$$

NEZ044-045-051>053-067-211200-
OMAHA AREA

CITY           SKY/WX    TMP DP  RH WIND       PRES   REMARKS
OMAHA EPPLEY   PTCLDY    19  14  81 SE9       30.23F WCI   8
BLAIR          PTCLDY    20  15  79 SE8       30.18F WCI  10
FREMONT        CLEAR     20  16  82 SE8       30.19S WCI  10
OFFUTT AFB     PTCLDY    15  11  83 E8        30.22F WCI   4
WAHOO          FAIR      14  10  85 CALM      30.19F
$$


USA.gov is the U.S. government's official web portal to all federal, state and local government web resources and services.